Knoxville, TN

10:23 AM EDT on June 24, 2017 (GMT -0400)
McGhee Tyson

Weather History for KTYS - February, 2013

Change the Weather History Date:

Friday, February 1, 2013

  Actual Average Record
Temperature  
Mean Temperature 32 °F 39 °F  
Max Temperature 43 °F 49 °F 73 °F (1988)
Min Temperature 20 °F 30 °F 6 °F (1872)
Degree Days  
Heating Degree Days 33 26  
Month to date heating degree days 33 26  
Since 1 July heating degree days 2081 2288  
Cooling Degree Days 0 0  
Month to date cooling degree days 0 0  
Year to date cooling degree days 2 0  
Moisture  
Dew Point 17 °F    
Average Humidity 57    
Maximum Humidity 78    
Minimum Humidity 36    
Precipitation  
Precipitation 0.01 in 0.15 in 1.89 in (1985)
Month to date precipitation 0.01 0.15  
Year to date precipitation 12.68 4.47  
Snow  
Snow T in 0.10 in - ()
Month to date snowfall T 0.1  
Since 1 July snowfall 1.4 3.6  
Snow Depth 0.00 in    
Sea Level Pressure  
Sea Level Pressure 30.27 in    
Wind  
Wind Speed 9 mph (West)    
Max Wind Speed 31 mph    
Max Gust Speed 39 mph    
Visibility 8 miles    
Events Rain , Snow    
T = Trace of Precipitation, MM = Missing Value Source: NWS Daily Summary

Daily Weather History Graph

Daily Weather History Graph

Search for Another Location

Airport or City:

Trip Planner

Search our weather history database for the weather conditions in past years. The results will help you decide how hot, cold, wet, or windy it might be!

Date:

Astronomy

Feb. 01, 2013 Rise Set
Actual Time 7:36 AM EST 6:03 PM EST
Civil Twilight 7:09 AM EST 6:30 PM EST
Nautical Twilight 6:38 AM EST 7:01 PM EST
Astronomical Twilight 6:08 AM EST 7:31 PM EST
Moon 11:55 PM EST (2/1) 10:21 AM EST (2/1)
Length of Visible Light 11h 21m
Length of Day
10h 27m
Waning Gibbous, 70% of the Moon is Illuminated
Feb 1
Waning Gibbous
Feb 3
Last Quarter
Feb 10
New
Feb 17
First Quarter
Feb 25
Full

Hourly Weather History & Observations

Time (EST) Temp. Windchill Dew Point Humidity Pressure Visibility Wind Dir Wind Speed Gust Speed Precip Events Conditions
12:53 AM 43.0 °F 33.1 °F 25.0 °F 49% 30.00 in 10.0 mi SW 26.5 mph 34.5 mph N/A   Overcast
1:53 AM 41.0 °F 31.4 °F 27.0 °F 57% 30.05 in 9.0 mi West 21.9 mph 34.5 mph 0.00 in   Overcast
2:20 AM 37.4 °F 25.9 °F 30.2 °F 75% 30.07 in 2.0 mi West 25.3 mph 32.2 mph 0.00 in Rain , Snow Light Rain
2:39 AM 33.8 °F 23.2 °F 30.2 °F 87% 30.09 in 2.0 mi West 17.3 mph 25.3 mph 0.01 in Snow Light Snow
2:42 AM 33.8 °F 23.9 °F 30.2 °F 87% 30.09 in 4.0 mi West 15.0 mph 23.0 mph 0.01 in Snow Light Snow
2:53 AM 34.0 °F 21.5 °F 28.9 °F 82% 30.11 in 2.5 mi West 24.2 mph 35.7 mph 0.01 in Snow Light Snow
3:00 AM 33.8 °F 23.2 °F 28.4 °F 81% 30.11 in 4.0 mi West 17.3 mph 31.1 mph 0.00 in Snow Light Snow
3:10 AM 33.8 °F 21.6 °F 28.4 °F 81% 30.12 in 4.0 mi West 23.0 mph 27.6 mph 0.00 in Snow Light Snow
3:13 AM 33.8 °F 21.3 °F 28.4 °F 81% 30.12 in 2.5 mi WNW 24.2 mph 34.5 mph 0.00 in Snow Light Snow
3:21 AM 32.0 °F 20.1 °F 26.6 °F 80% 30.12 in 1.5 mi WNW 19.6 mph 34.5 mph 0.00 in Snow Light Snow
3:32 AM 32.0 °F 21.2 °F 26.6 °F 80% 30.13 in 7.0 mi West 16.1 mph 25.3 mph 0.00 in Snow Light Snow
3:42 AM 32.0 °F 21.2 °F 26.6 °F 80% 30.13 in 7.0 mi WNW 16.1 mph 24.2 mph 0.00 in Snow Light Snow
3:53 AM 30.9 °F 19.1 °F 24.1 °F 76% 30.16 in 7.0 mi WNW 18.4 mph 31.1 mph 0.00 in Snow Light Snow
4:53 AM 27.0 °F 13.2 °F 15.1 °F 61% 30.22 in 10.0 mi West 20.7 mph 28.8 mph 0.00 in   Scattered Clouds
5:53 AM 24.1 °F 11.5 °F 12.0 °F 60% 30.26 in 10.0 mi West 15.0 mph 24.2 mph N/A   Clear
6:53 AM 21.9 °F 10.4 °F 12.0 °F 66% 30.31 in 10.0 mi West 11.5 mph - N/A   Scattered Clouds
7:53 AM 21.0 °F 9.3 °F 10.0 °F 63% 30.35 in 10.0 mi West 11.5 mph - N/A   Scattered Clouds
8:53 AM 21.0 °F 10.6 °F 10.0 °F 63% 30.38 in 10.0 mi WNW 9.2 mph - N/A   Partly Cloudy
9:53 AM 23.0 °F 17.0 °F 9.0 °F 55% 30.41 in 10.0 mi Variable 4.6 mph - N/A   Partly Cloudy
10:53 AM 24.1 °F 18.2 °F 9.0 °F 53% 30.43 in 10.0 mi West 4.6 mph - N/A   Scattered Clouds
11:53 AM 27.0 °F 18.0 °F 10.9 °F 51% 30.43 in 10.0 mi WSW 9.2 mph - N/A   Mostly Cloudy
12:53 PM 28.9 °F 21.1 °F 10.0 °F 45% 30.41 in 10.0 mi WNW 8.1 mph - N/A   Scattered Clouds
1:53 PM 28.0 °F - 8.1 °F 43% 30.39 in 10.0 mi Calm Calm - N/A   Partly Cloudy
2:53 PM 28.9 °F 22.8 °F 8.1 °F 41% 30.38 in 10.0 mi SW 5.8 mph - N/A   Clear
3:53 PM 30.9 °F 23.5 °F 9.0 °F 40% 30.38 in 10.0 mi West 8.1 mph - N/A   Clear
4:53 PM 30.9 °F 24.3 °F 7.0 °F 37% 30.39 in 10.0 mi West 6.9 mph - N/A   Clear
5:53 PM 28.9 °F 22.8 °F 8.1 °F 41% 30.38 in 10.0 mi WSW 5.8 mph - N/A   Clear
6:53 PM 28.0 °F 24.2 °F 9.0 °F 45% 30.40 in 10.0 mi West 3.5 mph - N/A   Clear
7:53 PM 28.0 °F - 9.0 °F 45% 30.41 in 10.0 mi Calm Calm - N/A   Clear
8:53 PM 27.0 °F - 10.0 °F 49% 30.41 in 10.0 mi Calm Calm - N/A   Clear
9:53 PM 26.1 °F - 12.9 °F 58% 30.40 in 10.0 mi Calm Calm - N/A   Clear
10:53 PM 25.0 °F 20.7 °F 12.9 °F 60% 30.41 in 10.0 mi WSW 3.5 mph - N/A   Clear
11:53 PM 23.0 °F 17.0 °F 14.0 °F 68% 30.40 in 10.0 mi SW 4.6 mph - N/A   Clear